WA9NNN-10 Weather Reports


Display with metric or nautical units.
time (UTC)temp
F
wind
direction
speed
MPH
gust
MPH
rain 1hr
in
rain 24hr
in
rain mn
in
humidity
%
barometer
mb
20260904221830 95 239 6.0 4.0 0.00 0.00 0.00 57 1011.8
20260904221330 94 213 1.0 3.0 0.00 0.00 0.00 58 1011.6
20260904220831 94 217 10.0 4.0 0.00 0.00 0.00 58 1011.6
20260904220330 94 165 3.0 5.0 0.00 0.00 0.00 58 1011.7
20260904215831 94 158 14.0 5.0 0.00 0.00 0.00 59 1011.8
20260904215330 94 206 4.0 5.0 0.00 0.00 0.00 58 1011.7
20260904214831 94 188 7.0 5.0 0.00 0.00 0.00 58 1011.6
20260904214330 94 226 2.0 5.0 0.00 0.00 0.00 58 1011.5
20260904213831 94 203 4.0 5.0 0.00 0.00 0.00 58 1011.5
20260904213330 94 203 4.0 6.0 0.00 0.00 0.00 58 1011.4
20260904212831 93 198 4.0 5.0 0.00 0.00 0.00 58 1011.4
20260904212330 94 206 10.0 4.0 0.00 0.00 0.00 58 1011.5
20260904211831 93 230 3.0 5.0 0.00 0.00 0.00 58 1011.5
20260904211331 93 219 3.0 6.0 0.00 0.00 0.00 58 1011.5
20260904210832 93 176 8.0 5.0 0.00 0.00 0.00 58 1011.6
20260904210330 93 160 2.0 6.0 0.00 0.00 0.00 58 1011.5
20260904205830 93 207 8.0 5.0 0.00 0.00 0.00 58 1011.6
20260904205330 93 195 4.0 5.0 0.00 0.00 0.00 58 1011.5
20260904204830 93 188 5.0 5.0 0.00 0.00 0.00 57 1011.7
20260904204331 94 221 3.0 5.0 0.00 0.00 0.00 56 1011.8
20260904203831 94 276 2.0 5.0 0.00 0.00 0.00 56 1011.8
20260904203330 94 172 6.0 4.0 0.00 0.00 0.00 55 1012.1
20260904202831 95 195 7.0 3.0 0.00 0.00 0.00 55 1012.2
20260904202330 95 219 4.0 4.0 0.00 0.00 0.00 55 1012.2
20260904201831 95 172 2.0 4.0 0.00 0.00 0.00 54 1012.3
20260904201330 95 214 3.0 5.0 0.00 0.00 0.00 54 1012.3
20260904200832 96 228 9.0 5.0 0.00 0.00 0.00 52 1012.3
20260904200330 96 189 4.0 4.0 0.00 0.00 0.00 52 1012.4
20260904195831 96 221 3.0 4.0 0.00 0.00 0.00 53 1012.6
20260904195330 96 169 3.0 4.0 0.00 0.00 0.00 53 1012.6
20260904194831 96 186 4.0 5.0 0.00 0.00 0.00 53 1012.6
20260904194330 96 220 3.0 6.0 0.00 0.00 0.00 53 1012.7
20260904193830 96 182 4.0 5.0 0.00 0.00 0.00 52 1012.7
20260904193331 97 185 8.0 3.0 0.00 0.00 0.00 52 1012.9
20260904192831 96 207 2.0 3.0 0.00 0.00 0.00 52 1012.9
20260904192330 95 201 2.0 4.0 0.00 0.00 0.00 52 1013.0
20260904191830 95 14 2.0 4.0 0.00 0.00 0.00 51 1013.1
20260904191330 95 0 0.0 4.0 0.00 0.00 0.00 52 1013.2
20260904190830 94 234 2.0 4.0 0.00 0.00 0.00 53 1013.3
20260904190330 94 172 8.0 4.0 0.00 0.00 0.00 53 1013.4
20260904185831 94 157 6.0 4.0 0.00 0.00 0.00 53 1013.4
20260904185330 93 172 2.0 3.0 0.00 0.00 0.00 54 1013.6
20260904184830 92 138 2.0 4.0 0.00 0.00 0.00 58 1013.7
20260904184330 90 195 4.0 4.0 0.00 0.00 0.00 59 1013.7
20260904183830 89 224 3.0 4.0 0.00 0.00 0.00 61 1013.7
20260904183331 87 208 2.0 4.0 0.00 0.00 0.00 64 1013.6
20260904182831 86 211 2.0 4.0 0.00 0.00 0.00 64 1013.6
20260904182332 86 262 2.0 4.0 0.00 0.00 0.00 63 1013.7
20260904181832 87 152 4.0 4.0 0.00 0.00 0.00 63 1013.8
20260904181331 87 221 3.0 4.0 0.00 0.00 0.00 62 1013.9
20260904180831 87 181 2.0 4.0 0.00 0.00 0.00 62 1014.0
20260904180331 87 147 1.0 3.0 0.00 0.00 0.00 61 1014.2
20260904175831 88 198 5.0 3.0 0.00 0.00 0.00 61 1014.4
20260904175333 89 134 3.0 4.0 0.00 0.00 0.00 61 1014.6
20260904174831 89 162 2.0 3.0 0.00 0.00 0.00 62 1015.0
20260904174331 88 117 3.0 3.0 0.00 0.00 0.00 63 1015.5
20260904173831 88 113 3.0 3.0 0.00 0.00 0.00 65 1015.7
20260904173331 87 84 4.0 4.0 0.00 0.00 0.00 66 1016.1
20260904172831 87 56 8.0 5.0 0.00 0.00 0.00 65 1016.2
20260904172331 86 92 2.0 5.0 0.00 0.00 0.00 67 1016.4
20260904171831 86 60 4.0 6.0 0.00 0.00 0.00 67 1016.1
20260904171330 85 60 8.0 6.0 0.00 0.00 0.00 67 1016.1
20260904170831 85 50 9.0 6.0 0.00 0.00 0.00 69 1016.2
20260904170331 83 63 6.0 7.0 0.00 0.00 0.00 71 1016.2
20260904165831 83 108 5.0 6.0 0.00 0.00 0.00 72 1016.2
20260904165331 82 63 3.0 7.0 0.00 0.00 0.00 74 1016.3
20260904164832 81 58 4.0 8.0 0.00 0.00 0.00 76 1016.3
20260904164331 81 48 12.0 8.0 0.00 0.00 0.00 77 1016.5
20260904163831 80 90 10.0 8.0 0.00 0.00 0.00 77 1016.6
20260904163331 81 49 9.0 7.0 0.00 0.00 0.00 76 1016.7
20260904162832 80 74 12.0 7.0 0.00 0.00 0.00 77 1017.0
20260904162331 80 27 4.0 8.0 0.00 0.00 0.00 77 1016.8
20260904161832 80 63 10.0 8.0 0.00 0.00 0.00 77 1016.8
20260904161331 79 77 6.0 8.0 0.00 0.00 0.00 77 1017.0
20260904160832 79 89 8.0 9.0 0.00 0.00 0.00 78 1017.1
20260904160331 79 70 7.0 8.0 0.00 0.00 0.00 77 1017.0
20260904155831 80 85 13.0 7.0 0.00 0.00 0.00 77 1017.2
20260904155331 80 66 5.0 8.0 0.00 0.00 0.00 76 1017.1
20260904154831 80 359 4.0 7.0 0.00 0.00 0.00 76 1017.0
20260904154331 80 63 10.0 8.0 0.00 0.00 0.00 76 1016.9
20260904153832 80 84 4.0 8.0 0.00 0.00 0.00 75 1016.7
20260904153331 81 55 5.0 8.0 0.00 0.00 0.00 75 1016.7
20260904152831 81 49 9.0 7.0 0.00 0.00 0.00 73 1016.5
20260904152331 82 76 5.0 7.0 0.00 0.00 0.00 73 1016.4
20260904151832 82 56 8.0 5.0 0.00 0.00 0.00 73 1016.1
20260904151331 82 50 5.0 6.0 0.00 0.00 0.00 74 1015.8
20260904150831 82 82 4.0 7.0 0.00 0.00 0.00 75 1015.7
20260904150331 81 80 7.0 6.0 0.00 0.00 0.00 75 1015.6
20260904145831 82 53 12.0 5.0 0.00 0.00 0.00 76 1015.6
20260904145331 82 68 6.0 4.0 0.00 0.00 0.00 78 1015.6
20260904144831 81 74 6.0 4.0 0.00 0.00 0.00 80 1015.5
20260904144331 81 75 2.0 5.0 0.00 0.00 0.00 80 1015.5
20260904143831 81 77 5.0 5.0 0.00 0.00 0.00 81 1015.4
20260904143331 80 82 6.0 6.0 0.00 0.00 0.00 82 1015.4
20260904142831 80 51 2.0 6.0 0.00 0.00 0.00 82 1015.4
20260904142331 80 94 1.0 6.0 0.00 0.00 0.00 83 1015.4
20260904141831 80 70 6.0 5.0 0.00 0.00 0.00 83 1015.4
20260904141331 80 78 6.0 4.0 0.00 0.00 0.00 83 1015.4
20260904140832 80 79 4.0 5.0 0.00 0.00 0.00 83 1015.4
20260904140330 80 5 3.0 5.0 0.00 0.00 0.00 83 1015.3
20260904135831 80 69 8.0 6.0 0.00 0.00 0.00 82 1015.3
20260904135330 80 359 3.0 5.0 0.00 0.00 0.00 82 1015.2
20260904134831 81 44 6.0 5.0 0.00 0.00 0.00 83 1015.1
20260904134331 80 77 4.0 5.0 0.00 0.00 0.00 83 1015.1
20260904133831 80 18 2.0 5.0 0.00 0.00 0.00 83 1015.0
20260904133331 80 71 9.0 5.0 0.00 0.00 0.00 83 1015.1
20260904132831 80 65 5.0 4.0 0.00 0.00 0.00 84 1015.1
20260904132331 80 41 3.0 3.0 0.00 0.00 0.00 84 1014.9
20260904131831 80 55 5.0 3.0 0.00 0.00 0.00 85 1014.7
20260904131330 79 51 2.0 2.0 0.00 0.00 0.00 85 1014.6
20260904130831 79 60 2.0 3.0 0.00 0.00 0.00 85 1014.6
20260904130331 79 72 3.0 3.0 0.00 0.00 0.00 85 1014.6
20260904125832 79 61 2.0 3.0 0.00 0.00 0.00 85 1014.5
20260904125330 79 57 7.0 3.0 0.00 0.00 0.00 85 1014.3
20260904124831 79 65 3.0 5.0 0.00 0.00 0.00 85 1014.3
20260904124331 79 40 2.0 4.0 0.00 0.00 0.00 84 1014.3
20260904123831 79 77 5.0 4.0 0.00 0.00 0.00 84 1014.2
20260904123330 80 49 3.0 3.0 0.00 0.00 0.00 83 1014.3
20260904122832 80 79 6.0 3.0 0.00 0.00 0.00 82 1014.2
20260904122331 80 98 3.0 2.0 0.00 0.00 0.00 82 1014.0
20260904121832 80 338 3.0 2.0 0.00 0.00 0.00 81 1013.7
20260904121332 80 1 3.0 1.0 0.00 0.00 0.00 81 1013.7
20260904120831 80 0 0.0 0.0 0.00 0.00 0.00 80 1013.7
20260904120331 80 0 0.0 1.0 0.00 0.00 0.00 80 1013.5
20260904115831 80 0 0.0 1.0 0.00 0.00 0.00 80 1013.4
20260904115331 80 73 2.0 1.0 0.00 0.00 0.00 80 1013.4
20260904114831 80 66 2.0 1.0 0.00 0.00 0.00 80 1013.4
20260904114330 80 335 2.0 0.0 0.00 0.00 0.00 79 1013.1
20260904113831 79 0 0.0 0.0 0.00 0.00 0.00 79 1012.9
20260904113330 80 0 0.0 0.0 0.00 0.00 0.00 79 1012.9
20260904112831 80 0 0.0 0.0 0.00 0.00 0.00 79 1012.8
20260904112330 80 227 1.0 0.0 0.00 0.00 0.00 79 1012.7
20260904111831 80 0 0.0 0.0 0.00 0.00 0.00 79 1012.6
20260904111330 80 0 0.0 0.0 0.00 0.00 0.00 79 1012.6
20260904110831 80 0 0.0 0.0 0.00 0.00 0.00 78 1012.6
20260904110330 80 0 0.0 0.0 0.00 0.00 0.00 79 1012.5
20260904105831 80 0 0.0 0.0 0.00 0.00 0.00 78 1012.5
20260904105331 80 227 1.0 0.0 0.00 0.00 0.00 79 1012.5
20260904104831 80 0 0.0 0.0 0.00 0.00 0.00 79 1012.5
20260904104331 80 0 0.0 1.0 0.00 0.00 0.00 79 1012.4
20260904103831 80 0 0.0 1.0 0.00 0.00 0.00 79 1012.4
20260904103331 80 234 1.0 2.0 0.00 0.00 0.00 79 1012.3
20260904102833 80 206 1.0 2.0 0.00 0.00 0.00 79 1012.2
20260904102330 80 212 3.0 2.0 0.00 0.00 0.00 79 1012.2
20260904101831 80 195 1.0 2.0 0.00 0.00 0.00 80 1012.2
20260904101331 80 0 0.0 2.0 0.00 0.00 0.00 80 1012.2
20260904100831 80 224 2.0 1.0 0.00 0.00 0.00 80 1012.1
20260904100331 80 221 2.0 1.0 0.00 0.00 0.00 80 1012.3
20260904095830 80 216 1.0 2.0 0.00 0.00 0.00 80 1012.2
20260904095330 80 218 2.0 2.0 0.00 0.00 0.00 81 1012.2
20260904094831 80 181 2.0 2.0 0.00 0.00 0.00 81 1012.2
20260904094330 80 198 3.0 2.0 0.00 0.00 0.00 81 1012.2
20260904093830 80 217 1.0 3.0 0.00 0.00 0.00 81 1012.2
20260904093330 80 178 3.0 3.0 0.00 0.00 0.00 81 1012.1
20260904092832 80 219 1.0 3.0 0.00 0.00 0.00 82 1012.1
20260904092330 80 176 5.0 3.0 0.00 0.00 0.00 82 1012.2
20260904091831 80 187 4.0 3.0 0.00 0.00 0.00 82 1012.3
20260904091331 80 200 2.0 3.0 0.00 0.00 0.00 82 1012.2
20260904090831 81 203 3.0 3.0 0.00 0.00 0.00 82 1012.2
20260904090330 80 200 3.0 3.0 0.00 0.00 0.00 83 1012.2
20260904085830 80 222 3.0 3.0 0.00 0.00 0.00 83 1012.4
20260904085330 80 195 2.0 3.0 0.00 0.00 0.00 83 1012.4
20260904084831 80 226 2.0 2.0 0.00 0.00 0.00 83 1012.5
20260904084330 80 206 3.0 1.0 0.00 0.00 0.00 83 1012.7
20260904083831 80 212 2.0 0.0 0.00 0.00 0.00 83 1012.8
20260904083330 80 0 0.0 0.0 0.00 0.00 0.00 83 1013.0
20260904082830 80 0 0.0 0.0 0.00 0.00 0.00 83 1013.1
20260904082330 80 212 1.0 0.0 0.00 0.00 0.00 84 1013.0
20260904081831 80 212 1.0 0.0 0.00 0.00 0.00 84 1012.8
20260904081330 80 0 0.0 0.0 0.00 0.00 0.00 84 1012.8
20260904080831 80 0 0.0 1.0 0.00 0.00 0.00 84 1012.8
20260904080330 80 212 1.0 1.0 0.00 0.00 0.00 84 1012.8
20260904075831 80 188 1.0 1.0 0.00 0.00 0.00 84 1012.6
20260904075330 80 0 0.0 0.0 0.00 0.00 0.00 84 1012.7
20260904074330 80 0 0.0 0.0 0.00 0.00 0.00 84 1012.6
20260904073331 80 0 0.0 0.0 0.00 0.00 0.00 84 1012.4
20260904072831 80 0 0.0 0.0 0.00 0.00 0.00 84 1012.3
20260904072330 80 0 0.0 0.0 0.00 0.00 0.00 84 1012.2
20260904071830 80 0 0.0 0.0 0.00 0.00 0.00 84 1012.3
20260904071330 80 0 0.0 0.0 0.00 0.00 0.00 84 1012.2
20260904070831 80 0 0.0 0.0 0.00 0.00 0.00 84 1012.2
20260904070331 80 0 0.0 1.0 0.00 0.00 0.00 84 1012.2
20260904065831 80 0 0.0 1.0 0.00 0.00 0.00 84 1012.2
20260904065330 80 0 0.0 0.0 0.00 0.00 0.00 84 1012.2
20260904064830 80 0 0.0 0.0 0.00 0.00 0.00 84 1012.3
20260904064330 80 0 0.0 0.0 0.00 0.00 0.00 83 1012.4
20260904063831 80 0 0.0 0.0 0.00 0.00 0.00 83 1012.6
20260904063330 80 0 0.0 0.0 0.00 0.00 0.00 83 1012.6
20260904062831 80 0 0.0 0.0 0.00 0.00 0.00 82 1012.8
20260904062330 80 0 0.0 0.0 0.00 0.00 0.00 82 1013.0
20260904061832 80 0 0.0 0.0 0.00 0.00 0.00 82 1013.1
20260904061330 80 0 0.0 0.0 0.00 0.00 0.00 82 1013.2
20260904060830 80 0 0.0 0.0 0.00 0.00 0.00 82 1013.3
20260904060330 80 0 0.0 0.0 0.00 0.00 0.00 82 1013.4
20260904055832 80 0 0.0 0.0 0.00 0.00 0.00 82 1013.5
20260904055331 80 0 0.0 0.0 0.00 0.00 0.00 82 1013.6
20260904054830 80 359 2.0 0.0 0.00 0.00 0.00 82 1013.6
20260904054330 80 0 0.0 0.0 0.00 0.00 0.00 82 1013.6
20260904053830 81 0 0.0 0.0 0.00 0.00 0.00 82 1013.6
20260904053331 81 0 0.0 0.0 0.00 0.00 0.00 82 1013.7
20260904052830 81 0 0.0 1.0 0.00 0.00 0.00 82 1013.7
20260904052331 81 0 0.0 1.0 0.00 0.00 0.00 82 1013.7
20260904051831 80 359 3.0 1.0 0.00 0.00 0.00 83 1013.6
20260904051331 80 0 0.0 0.0 0.00 0.00 0.00 83 1013.5
20260904050830 80 0 0.0 0.0 0.00 0.00 0.00 82 1013.3
20260904050330 80 0 0.0 0.0 0.00 0.00 0.00 82 1013.2
20260904045830 80 0 0.0 0.0 0.00 0.00 0.00 82 1013.3
20260904045330 80 0 0.0 0.0 0.00 0.00 0.00 82 1013.3
20260904044830 80 0 0.0 0.0 0.00 0.00 0.00 81 1013.3
20260904044330 80 0 0.0 0.0 0.00 0.00 0.00 81 1013.3
20260904043830 80 0 0.0 0.0 0.00 0.00 0.00 81 1013.3
20260904043331 80 0 0.0 0.0 0.00 0.00 0.00 81 1013.3
20260904042830 80 0 0.0 0.0 0.00 0.00 0.00 81 1013.4
20260904042330 80 0 0.0 0.0 0.00 0.00 0.00 81 1013.4
20260904041830 81 0 0.0 0.0 0.00 0.00 0.00 80 1013.5
20260904041330 81 0 0.0 0.0 0.00 0.00 0.00 80 1013.6
20260904040830 81 0 0.0 0.0 0.00 0.00 0.00 80 1013.6
20260904040330 81 0 0.0 0.0 0.00 0.00 0.00 80 1013.6
20260904035830 81 0 0.0 0.0 0.00 0.00 0.00 79 1013.6
20260904035330 81 0 0.0 0.0 0.00 0.00 0.00 79 1013.6
20260904034830 81 0 0.0 0.0 0.00 0.00 0.00 79 1013.6
20260904034331 81 0 0.0 0.0 0.00 0.00 0.00 79 1013.7
20260904033832 81 0 0.0 0.0 0.00 0.00 0.00 79 1013.8
20260904033331 81 0 0.0 1.0 0.00 0.00 0.00 79 1013.8
20260904032832 81 63 2.0 1.0 0.00 0.00 0.00 79 1013.8
20260904032331 81 0 0.0 0.0 0.00 0.00 0.00 79 1014.0
20260904031831 81 0 0.0 1.0 0.00 0.00 0.00 78 1014.0
20260904031331 81 0 0.0 1.0 0.00 0.00 0.00 78 1014.0
20260904030832 81 63 1.0 2.0 0.00 0.00 0.00 78 1013.9
20260904030331 81 61 2.0 2.0 0.00 0.00 0.00 77 1013.9
20260904025831 82 56 3.0 1.0 0.00 0.00 0.00 77 1013.9
20260904025331 82 35 1.0 0.0 0.00 0.00 0.00 76 1014.0
20260904024831 82 0 0.0 1.0 0.00 0.00 0.00 76 1014.0
20260904024331 82 0 0.0 1.0 0.00 0.00 0.00 75 1014.0
20260904023831 82 87 2.0 1.0 0.00 0.00 0.00 75 1014.0
20260904023331 82 87 2.0 0.0 0.00 0.00 0.00 74 1014.0
20260904022903 82 0 0.0 1.0 0.00 0.00 0.00 74 1013.9
20260904022831 82 0 0.0 1.0 0.00 0.00 0.00 74 1013.9
20260904022331 82 87 2.0 1.0 0.00 0.00 0.00 74 1013.6
20260904021831 82 0 0.0 2.0 0.00 0.00 0.00 73 1013.4
20260904021331 82 58 4.0 1.0 0.00 0.00 0.00 73 1013.6
20260904020831 82 0 0.0 0.0 0.00 0.00 0.00 73 1013.6
20260904020331 82 0 0.0 0.0 0.00 0.00 0.00 73 1013.5
20260904015831 82 0 0.0 0.0 0.00 0.00 0.00 73 1013.4
20260904015330 82 0 0.0 0.0 0.00 0.00 0.00 73 1013.5
20260904014831 82 0 0.0 0.0 0.00 0.00 0.00 74 1013.4
20260904014331 82 0 0.0 0.0 0.00 0.00 0.00 73 1013.5
20260904013831 82 0 0.0 1.0 0.00 0.00 0.00 73 1013.4
20260904013331 82 0 0.0 0.0 0.00 0.00 0.00 73 1013.4
20260904012831 82 0 0.0 0.0 0.00 0.00 0.00 73 1013.3
20260904012331 82 0 0.0 0.0 0.00 0.00 0.00 72 1013.1
20260904011831 82 0 0.0 0.0 0.00 0.00 0.00 72 1013.1
20260904011331 82 0 0.0 0.0 0.00 0.00 0.00 72 1012.9
20260904010831 82 0 0.0 0.0 0.00 0.00 0.00 72 1012.8
20260904010331 82 0 0.0 0.0 0.00 0.00 0.00 72 1012.7
20260904005831 82 0 0.0 0.0 0.00 0.00 0.00 72 1012.5
20260904005331 82 104 1.0 1.0 0.00 0.00 0.00 72 1012.4
20260904004831 82 173 1.0 1.0 0.00 0.00 0.00 72 1012.3
20260904004331 82 173 2.0 2.0 0.00 0.00 0.00 72 1012.3
20260904003831 82 193 2.0 2.0 0.00 0.00 0.00 71 1012.3
20260904003330 82 185 3.0 2.0 0.00 0.00 0.00 71 1012.3
20260904002831 82 176 3.0 1.0 0.00 0.00 0.00 71 1012.4
20260904002331 82 179 1.0 1.0 0.00 0.00 0.00 71 1012.4
20260904001831 82 180 3.0 1.0 0.00 0.00 0.00 71 1012.5
20260904001331 82 0 0.0 2.0 0.00 0.00 0.00 71 1012.6
20260904000831 82 188 2.0 2.0 0.00 0.00 0.00 71 1012.5
20260904000333 82 198 2.0 2.0 0.00 0.00 0.00 71 1012.5
20260903235832 82 184 1.0 2.0 0.00 0.00 0.00 72 1012.4
20260903235331 82 0 0.0 1.0 0.00 0.00 0.00 72 1012.4
20260903234831 82 194 2.0 1.0 0.00 0.00 0.00 73 1012.4
20260903234331 82 131 1.0 1.0 0.00 0.00 0.00 73 1012.4
20260903233831 82 0 0.0 1.0 0.00 0.00 0.00 73 1012.4
20260903233331 82 63 3.0 2.0 0.00 0.00 0.00 73 1012.4
20260903232831 82 70 1.0 2.0 0.00 0.00 0.00 73 1012.5
20260903232330 82 49 5.0 2.0 0.00 0.00 0.00 73 1012.6
20260903231831 82 0 0.0 2.0 0.00 0.00 0.00 73 1012.6
20260903231331 82 84 5.0 2.0 0.00 0.00 0.00 73 1012.7
20260903230831 82 124 3.0 2.0 0.00 0.00 0.00 73 1012.8
20260903230331 82 71 2.0 3.0 0.00 0.00 0.00 72 1012.9
20260903225831 82 139 2.0 3.0 0.00 0.00 0.00 72 1012.9
20260903225331 82 186 3.0 3.0 0.00 0.00 0.00 72 1012.9
20260903224831 83 55 2.0 4.0 0.00 0.00 0.00 72 1012.9
20260903224331 83 68 6.0 3.0 0.00 0.00 0.00 72 1013.0
20260903223831 83 87 5.0 3.0 0.00 0.00 0.00 72 1013.1
20260903223331 83 72 1.0 3.0 0.00 0.00 0.00 71 1013.0
20260903222831 83 132 4.0 4.0 0.00 0.00 0.00 70 1013.2
20260903222331 84 97 4.0 4.0 0.00 0.00 0.00 70 1013.3